| time (UTC) | temp F | wind direction | speed MPH | gust MPH | rain 1hr in | rain 24hr in | rain mn in | humidity % | barometer mb |
| 20260507084204 | 52 | 317 | 1.0 | 4.0 | 0.00 | 0.00 | 0.00 | 80 | 1014.4 |
| 20260507083704 | 52 | 236 | 1.0 | 7.0 | 0.00 | 0.00 | 0.00 | 80 | 1014.4 |
| 20260507083204 | 52 | 301 | 2.0 | 7.0 | 0.00 | 0.00 | 0.00 | 80 | 1014.3 |
| 20260507082704 | 52 | 279 | 1.0 | 7.0 | 0.00 | 0.00 | 0.00 | 80 | 1014.4 |
| 20260507081704 | 52 | 311 | 2.0 | 4.0 | 0.00 | 0.00 | 0.00 | 80 | 1014.3 |
| 20260507081225 | 52 | 0 | 1.0 | 5.0 | 0.00 | 0.00 | 0.00 | 80 | 1014.3 |
| 20260507080705 | 52 | 313 | 1.0 | 6.0 | 0.00 | 0.00 | 0.00 | 80 | 1014.2 |
| 20260507080204 | 52 | 5 | 2.0 | 7.0 | 0.00 | 0.00 | 0.00 | 80 | 1014.1 |
| 20260507075204 | 52 | 262 | 1.0 | 10.0 | 0.00 | 0.00 | 0.00 | 81 | 1014.2 |
| 20260507074704 | 52 | 30 | 1.0 | 10.0 | 0.00 | 0.00 | 0.00 | 82 | 1014.0 |
| 20260507074204 | 51 | 5 | 2.0 | 6.0 | 0.00 | 0.00 | 0.00 | 83 | 1013.9 |
| 20260507073204 | 51 | 281 | 2.0 | 5.0 | 0.00 | 0.00 | 0.00 | 84 | 1013.9 |
| 20260507072704 | 51 | 294 | 2.0 | 5.0 | 0.00 | 0.01 | 0.00 | 84 | 1013.9 |
| 20260507072205 | 51 | 239 | 2.0 | 5.0 | 0.00 | 0.01 | 0.00 | 84 | 1013.8 |
| 20260507071704 | 51 | 302 | 2.0 | 4.0 | 0.00 | 0.01 | 0.00 | 85 | 1013.9 |
| 20260507071204 | 50 | 330 | 1.0 | 4.0 | 0.00 | 0.01 | 0.00 | 85 | 1013.8 |
| 20260507070705 | 50 | 5 | 1.0 | 4.0 | 0.00 | 0.01 | 0.00 | 87 | 1013.9 |
| 20260507070220 | 50 | 296 | 1.0 | 4.0 | 0.00 | 0.01 | 0.00 | 87 | 1013.8 |
| 20260507065705 | 50 | 263 | 1.0 | 4.0 | 0.00 | 0.01 | 0.00 | 87 | 1013.7 |
| 20260507065204 | 50 | 272 | 1.0 | 3.0 | 0.00 | 0.01 | 0.00 | 88 | 1013.6 |
| 20260507064204 | 50 | 288 | 1.0 | 4.0 | 0.00 | 0.01 | 0.00 | 89 | 1013.7 |
| 20260507063704 | 49 | 294 | 1.0 | 4.0 | 0.00 | 0.02 | 0.00 | 90 | 1013.6 |
| 20260507063204 | 49 | 265 | 0.0 | 3.0 | 0.00 | 0.02 | 0.00 | 90 | 1013.6 |
| 20260507062204 | 49 | 266 | 0.0 | 2.0 | 0.00 | 0.02 | 0.00 | 91 | 1013.6 |
| 20260507061718 | 48 | 266 | 0.0 | 1.0 | 0.00 | 0.02 | 0.00 | 92 | 1013.6 |
| 20260507061231 | 48 | 267 | 0.0 | 2.0 | 0.00 | 0.03 | 0.00 | 92 | 1013.5 |
| 20260507060704 | 48 | 267 | 0.0 | 2.0 | 0.00 | 0.03 | 0.00 | 92 | 1013.4 |
| 20260507060204 | 48 | 267 | 0.0 | 3.0 | 0.00 | 0.04 | 0.00 | 92 | 1013.4 |
| 20260507055704 | 47 | 267 | 0.0 | 3.0 | 0.00 | 0.05 | 0.00 | 92 | 1013.3 |
| 20260507055204 | 47 | 267 | 0.0 | 1.0 | 0.00 | 0.06 | 0.00 | 92 | 1013.3 |
| 20260507054704 | 47 | 267 | 0.0 | 1.0 | 0.00 | 0.06 | 0.00 | 92 | 1013.3 |
| 20260507054204 | 47 | 267 | 0.0 | 3.0 | 0.00 | 0.06 | 0.00 | 92 | 1013.2 |
| 20260507053704 | 47 | 267 | 0.0 | 3.0 | 0.00 | 0.06 | 0.00 | 92 | 1013.1 |
| 20260507053204 | 47 | 267 | 0.0 | 3.0 | 0.00 | 0.06 | 0.00 | 92 | 1013.1 |
| 20260507052704 | 47 | 267 | 0.0 | 2.0 | 0.00 | 0.06 | 0.00 | 92 | 1013.1 |
| 20260507052205 | 47 | 267 | 0.0 | 3.0 | 0.00 | 0.06 | 0.00 | 92 | 1013.0 |
| 20260507051705 | 47 | 267 | 0.0 | 3.0 | 0.00 | 0.06 | 0.00 | 92 | 1012.9 |
| 20260507051204 | 47 | 267 | 0.0 | 3.0 | 0.00 | 0.06 | 0.00 | 91 | 1012.8 |
| 20260507050704 | 47 | 253 | 0.0 | 2.0 | 0.00 | 0.06 | 0.00 | 91 | 1012.7 |
| 20260507050205 | 47 | 246 | 0.0 | 1.0 | 0.00 | 0.06 | 0.00 | 92 | 1012.6 |
| 20260507045704 | 47 | 246 | 0.0 | 3.0 | 0.00 | 0.06 | 0.00 | 92 | 1012.5 |
| 20260507045204 | 47 | 247 | 0.0 | 3.0 | 0.00 | 0.06 | 0.00 | 92 | 1012.5 |
| 20260507044705 | 47 | 245 | 0.0 | 3.0 | 0.00 | 0.06 | 0.00 | 92 | 1012.4 |
| 20260507043704 | 47 | 245 | 0.0 | 2.0 | 0.00 | 0.06 | 0.00 | 92 | 1012.4 |
| 20260507043205 | 47 | 246 | 0.0 | 3.0 | 0.00 | 0.06 | 0.00 | 92 | 1012.2 |
| 20260507042205 | 46 | 246 | 0.0 | 3.0 | 0.00 | 0.06 | 0.00 | 92 | 1012.1 |
| 20260507041705 | 47 | 244 | 0.0 | 1.0 | 0.00 | 0.07 | 0.00 | 92 | 1012.1 |
| 20260507041205 | 46 | 244 | 0.0 | 1.0 | 0.00 | 0.07 | 0.00 | 92 | 1012.1 |
| 20260507040704 | 46 | 244 | 0.0 | 0.0 | 0.00 | 0.09 | 0.00 | 92 | 1012.0 |
| 20260507040219 | 46 | 244 | 0.0 | 1.0 | 0.00 | 0.09 | 0.00 | 92 | 1012.0 |
| 20260507034705 | 46 | 244 | 0.0 | 1.0 | 0.00 | 0.09 | 0.00 | 92 | 1011.9 |
| 20260507033704 | 46 | 244 | 0.0 | 1.0 | 0.00 | 0.09 | 0.00 | 92 | 1011.9 |
| 20260507033204 | 46 | 244 | 0.0 | 0.0 | 0.00 | 0.09 | 0.00 | 92 | 1012.0 |
| 20260507032704 | 46 | 244 | 0.0 | 0.0 | 0.00 | 0.09 | 0.00 | 92 | 1011.9 |
| 20260507032204 | 46 | 244 | 0.0 | 0.0 | 0.00 | 0.09 | 0.00 | 91 | 1011.9 |
| 20260507031704 | 46 | 244 | 0.0 | 0.0 | 0.00 | 0.09 | 0.00 | 91 | 1011.8 |
| 20260507031204 | 46 | 244 | 0.0 | 1.0 | 0.00 | 0.09 | 0.00 | 91 | 1011.8 |
| 20260507025704 | 46 | 244 | 0.0 | 1.0 | 0.00 | 0.09 | 0.00 | 91 | 1011.7 |
| 20260507025204 | 46 | 244 | 0.0 | 1.0 | 0.00 | 0.09 | 0.00 | 90 | 1011.7 |
| 20260507024704 | 46 | 244 | 0.0 | 0.0 | 0.00 | 0.09 | 0.00 | 90 | 1011.7 |
| 20260507024204 | 46 | 244 | 0.0 | 0.0 | 0.00 | 0.09 | 0.00 | 90 | 1011.7 |
| 20260507023704 | 46 | 244 | 0.0 | 0.0 | 0.00 | 0.09 | 0.00 | 90 | 1011.6 |
| 20260507022704 | 46 | 244 | 0.0 | 1.0 | 0.00 | 0.09 | 0.00 | 90 | 1011.6 |
| 20260507022204 | 46 | 244 | 0.0 | 1.0 | 0.00 | 0.09 | 0.00 | 90 | 1011.6 |
| 20260507021704 | 46 | 244 | 0.0 | 1.0 | 0.00 | 0.09 | 0.00 | 90 | 1011.5 |
| 20260507021205 | 46 | 244 | 0.0 | 1.0 | 0.00 | 0.09 | 0.00 | 90 | 1011.6 |
| 20260507020725 | 46 | 244 | 0.0 | 1.0 | 0.00 | 0.09 | 0.00 | 90 | 1011.6 |
| 20260507020204 | 47 | 244 | 0.0 | 1.0 | 0.00 | 0.09 | 0.00 | 90 | 1011.5 |
| 20260507015204 | 47 | 244 | 0.0 | 0.0 | 0.00 | 0.09 | 0.00 | 90 | 1011.6 |
| 20260507014728 | 47 | 244 | 0.0 | 1.0 | 0.00 | 0.09 | 0.00 | 90 | 1011.5 |
| 20260507014225 | 47 | 244 | 0.0 | 1.0 | 0.00 | 0.09 | 0.00 | 90 | 1011.5 |
| 20260507013704 | 47 | 244 | 0.0 | 1.0 | 0.00 | 0.09 | 0.00 | 90 | 1011.5 |
| 20260507013204 | 47 | 244 | 0.0 | 1.0 | 0.00 | 0.09 | 0.00 | 89 | 1011.5 |
| 20260507012704 | 47 | 244 | 0.0 | 1.0 | 0.00 | 0.09 | 0.00 | 89 | 1011.5 |
| 20260507012204 | 47 | 244 | 0.0 | 0.0 | 0.00 | 0.09 | 0.00 | 89 | 1011.5 |
| 20260507011704 | 47 | 244 | 0.0 | 0.0 | 0.00 | 0.09 | 0.00 | 89 | 1011.4 |
| 20260507011204 | 47 | 244 | 0.0 | 0.0 | 0.00 | 0.09 | 0.00 | 89 | 1011.4 |
| 20260507010704 | 47 | 244 | 0.0 | 0.0 | 0.00 | 0.09 | 0.00 | 88 | 1011.4 |
| 20260507005704 | 47 | 244 | 0.0 | 2.0 | 0.00 | 0.09 | 0.00 | 88 | 1011.4 |
| 20260507005204 | 47 | 244 | 0.0 | 2.0 | 0.00 | 0.09 | 0.00 | 88 | 1011.4 |
| 20260507004704 | 47 | 244 | 0.0 | 2.0 | 0.00 | 0.09 | 0.00 | 88 | 1011.3 |
| 20260507004204 | 47 | 244 | 0.0 | 2.0 | 0.00 | 0.09 | 0.00 | 88 | 1011.3 |
| 20260507003704 | 47 | 244 | 0.0 | 0.0 | 0.00 | 0.09 | 0.00 | 87 | 1011.3 |
| 20260507002704 | 48 | 244 | 0.0 | 0.0 | 0.00 | 0.09 | 0.00 | 87 | 1011.2 |
| 20260507002204 | 48 | 244 | 0.0 | 2.0 | 0.00 | 0.09 | 0.00 | 87 | 1011.2 |
| 20260507001704 | 48 | 244 | 0.0 | 2.0 | 0.00 | 0.09 | 0.00 | 87 | 1011.2 |
| 20260507001205 | 48 | 244 | 0.0 | 2.0 | 0.00 | 0.09 | 0.00 | 87 | 1011.2 |
| 20260507000205 | 48 | 244 | 0.0 | 2.0 | 0.00 | 0.09 | 0.00 | 87 | 1011.2 |
| 20260506235704 | 48 | 244 | 0.0 | 3.0 | 0.00 | 0.09 | 0.00 | 86 | 1011.2 |
| 20260506235204 | 48 | 244 | 0.0 | 3.0 | 0.00 | 0.09 | 0.00 | 87 | 1011.2 |
| 20260506234723 | 48 | 244 | 0.0 | 3.0 | 0.00 | 0.09 | 0.00 | 86 | 1011.1 |
| 20260506234204 | 49 | 244 | 0.0 | 2.0 | 0.00 | 0.09 | 0.00 | 86 | 1011.2 |
| 20260506233704 | 49 | 245 | 0.0 | 4.0 | 0.00 | 0.09 | 0.00 | 86 | 1011.2 |
| 20260506233204 | 49 | 245 | 0.0 | 4.0 | 0.00 | 0.09 | 0.00 | 86 | 1011.2 |
| 20260506232705 | 49 | 245 | 1.0 | 4.0 | 0.00 | 0.09 | 0.00 | 86 | 1011.2 |
| 20260506232205 | 49 | 245 | 1.0 | 4.0 | 0.00 | 0.09 | 0.00 | 86 | 1011.1 |
| 20260506231704 | 49 | 246 | 2.0 | 4.0 | 0.00 | 0.09 | 0.00 | 86 | 1011.1 |
| 20260506231204 | 49 | 242 | 1.0 | 4.0 | 0.00 | 0.09 | 0.00 | 86 | 1011.0 |
| 20260506230704 | 49 | 237 | 1.0 | 3.0 | 0.00 | 0.09 | 0.00 | 87 | 1011.1 |
| 20260506230232 | 49 | 238 | 1.0 | 3.0 | 0.00 | 0.09 | 0.00 | 87 | 1011.0 |
| 20260506225704 | 49 | 237 | 0.0 | 2.0 | 0.00 | 0.09 | 0.00 | 87 | 1011.0 |
| 20260506225204 | 49 | 309 | 0.0 | 2.0 | 0.00 | 0.09 | 0.00 | 87 | 1011.0 |
| 20260506224704 | 50 | 309 | 0.0 | 3.0 | 0.00 | 0.09 | 0.00 | 87 | 1010.9 |
| 20260506224204 | 50 | 311 | 0.0 | 4.0 | 0.00 | 0.09 | 0.00 | 87 | 1010.9 |
| 20260506223704 | 50 | 312 | 0.0 | 4.0 | 0.00 | 0.09 | 0.00 | 87 | 1010.8 |
| 20260506223204 | 50 | 315 | 0.0 | 2.0 | 0.00 | 0.09 | 0.00 | 86 | 1010.8 |
| 20260506221705 | 50 | 274 | 0.0 | 1.0 | 0.00 | 0.09 | 0.00 | 86 | 1010.7 |
| 20260506221204 | 50 | 274 | 0.0 | 4.0 | 0.00 | 0.09 | 0.00 | 87 | 1010.6 |
| 20260506220705 | 50 | 275 | 0.0 | 4.0 | 0.00 | 0.09 | 0.00 | 86 | 1010.4 |
| 20260506220204 | 50 | 275 | 1.0 | 4.0 | 0.00 | 0.09 | 0.09 | 86 | 1010.3 |
| 20260506215704 | 50 | 226 | 1.0 | 4.0 | 0.00 | 0.09 | 0.09 | 86 | 1010.3 |
| 20260506215204 | 50 | 232 | 0.0 | 3.0 | 0.00 | 0.09 | 0.09 | 86 | 1010.3 |
| 20260506214704 | 51 | 244 | 0.0 | 3.0 | 0.00 | 0.09 | 0.09 | 86 | 1010.3 |
| 20260506214205 | 51 | 244 | 1.0 | 3.0 | 0.00 | 0.09 | 0.09 | 86 | 1010.3 |
| 20260506213705 | 51 | 246 | 1.0 | 3.0 | 0.00 | 0.10 | 0.09 | 86 | 1010.2 |
| 20260506213204 | 51 | 246 | 1.0 | 4.0 | 0.00 | 0.10 | 0.09 | 86 | 1010.2 |
| 20260506212704 | 51 | 246 | 0.0 | 4.0 | 0.00 | 0.10 | 0.09 | 86 | 1010.2 |
| 20260506211704 | 51 | 238 | 1.0 | 3.0 | 0.00 | 0.10 | 0.09 | 85 | 1010.1 |
| 20260506211204 | 51 | 262 | 1.0 | 4.0 | 0.00 | 0.10 | 0.09 | 85 | 1010.1 |
| 20260506210704 | 51 | 260 | 1.0 | 4.0 | 0.00 | 0.10 | 0.09 | 84 | 1010.1 |
| 20260506210204 | 51 | 261 | 1.0 | 4.0 | 0.00 | 0.10 | 0.09 | 84 | 1010.1 |
| 20260506204704 | 51 | 278 | 1.0 | 5.0 | 0.00 | 0.10 | 0.09 | 84 | 1009.9 |
| 20260506203705 | 51 | 234 | 1.0 | 3.0 | 0.00 | 0.10 | 0.09 | 83 | 1009.9 |
| 20260506202706 | 51 | 254 | 1.0 | 3.0 | 0.00 | 0.10 | 0.09 | 83 | 1009.7 |
| 20260506202204 | 51 | 254 | 1.0 | 3.0 | 0.00 | 0.10 | 0.09 | 83 | 1009.7 |
| 20260506201704 | 51 | 266 | 1.0 | 3.0 | 0.00 | 0.10 | 0.09 | 82 | 1009.8 |
| 20260506201205 | 51 | 266 | 0.0 | 2.0 | 0.00 | 0.10 | 0.09 | 82 | 1009.8 |
| 20260506200704 | 52 | 267 | 0.0 | 3.0 | 0.00 | 0.10 | 0.09 | 82 | 1009.7 |
| 20260506200204 | 52 | 267 | 0.0 | 3.0 | 0.00 | 0.10 | 0.09 | 82 | 1009.6 |
| 20260506195704 | 52 | 267 | 0.0 | 1.0 | 0.00 | 0.11 | 0.09 | 82 | 1009.5 |
| 20260506195205 | 52 | 267 | 0.0 | 4.0 | 0.00 | 0.12 | 0.09 | 82 | 1009.4 |
| 20260506194705 | 52 | 267 | 0.0 | 4.0 | 0.00 | 0.13 | 0.09 | 82 | 1009.4 |
| 20260506194205 | 52 | 267 | 0.0 | 4.0 | 0.00 | 0.15 | 0.09 | 81 | 1009.4 |
| 20260506193705 | 52 | 267 | 0.0 | 4.0 | 0.00 | 0.16 | 0.09 | 81 | 1009.2 |
| 20260506193205 | 52 | 250 | 0.0 | 5.0 | 0.00 | 0.18 | 0.09 | 82 | 1009.2 |
| 20260506192205 | 52 | 250 | 1.0 | 5.0 | 0.00 | 0.28 | 0.09 | 81 | 1009.0 |
| 20260506191705 | 52 | 248 | 1.0 | 4.0 | 0.00 | 0.30 | 0.09 | 80 | 1009.0 |
| 20260506191205 | 52 | 246 | 1.0 | 4.0 | 0.00 | 0.31 | 0.09 | 80 | 1008.9 |
| 20260506185704 | 53 | 269 | 1.0 | 7.0 | 0.00 | 0.35 | 0.09 | 80 | 1008.7 |
| 20260506185205 | 53 | 269 | 1.0 | 7.0 | 0.00 | 0.37 | 0.09 | 80 | 1008.6 |
| 20260506184705 | 53 | 268 | 1.0 | 6.0 | 0.00 | 0.39 | 0.09 | 80 | 1008.6 |
| 20260506183704 | 53 | 259 | 1.0 | 4.0 | 0.00 | 0.42 | 0.09 | 80 | 1008.6 |
| 20260506183204 | 53 | 260 | 1.0 | 4.0 | 0.00 | 0.43 | 0.09 | 80 | 1008.6 |
| 20260506182204 | 53 | 286 | 0.0 | 3.0 | 0.00 | 0.44 | 0.09 | 81 | 1008.5 |
| 20260506181204 | 53 | 279 | 0.0 | 6.0 | 0.00 | 0.46 | 0.09 | 81 | 1008.4 |
| 20260506180704 | 53 | 289 | 1.0 | 6.0 | 0.00 | 0.46 | 0.09 | 81 | 1008.3 |
| 20260506180205 | 53 | 276 | 1.0 | 6.0 | 0.00 | 0.47 | 0.09 | 81 | 1008.3 |
| 20260506175704 | 53 | 302 | 1.0 | 7.0 | 0.00 | 0.48 | 0.09 | 82 | 1008.3 |
| 20260506175204 | 53 | 281 | 2.0 | 7.0 | 0.00 | 0.49 | 0.09 | 82 | 1008.2 |
| 20260506174704 | 53 | 234 | 2.0 | 7.0 | 0.00 | 0.49 | 0.09 | 81 | 1008.1 |
| 20260506173704 | 54 | 28 | 1.0 | 6.0 | 0.00 | 0.50 | 0.09 | 82 | 1008.0 |
| 20260506173205 | 54 | 298 | 1.0 | 6.0 | 0.00 | 0.50 | 0.09 | 82 | 1007.9 |
| 20260506172704 | 54 | 290 | 1.0 | 6.0 | 0.00 | 0.50 | 0.09 | 81 | 1007.7 |
| 20260506172204 | 54 | 281 | 1.0 | 7.0 | 0.00 | 0.51 | 0.09 | 81 | 1007.8 |
| 20260506171704 | 54 | 300 | 1.0 | 7.0 | 0.00 | 0.51 | 0.09 | 81 | 1007.7 |
| 20260506170704 | 54 | 349 | 2.0 | 6.0 | 0.00 | 0.51 | 0.09 | 81 | 1007.8 |
| 20260506170204 | 54 | 270 | 2.0 | 6.0 | 0.00 | 0.51 | 0.09 | 81 | 1007.8 |
| 20260506165705 | 54 | 280 | 2.0 | 9.0 | 0.00 | 0.51 | 0.09 | 80 | 1007.8 |
| 20260506165204 | 54 | 24 | 2.0 | 9.0 | 0.00 | 0.51 | 0.09 | 81 | 1007.8 |
| 20260506164704 | 54 | 269 | 2.0 | 9.0 | 0.00 | 0.51 | 0.09 | 81 | 1007.8 |
| 20260506164204 | 54 | 31 | 1.0 | 4.0 | 0.00 | 0.51 | 0.09 | 81 | 1007.7 |
| 20260506163704 | 54 | 322 | 1.0 | 6.0 | 0.00 | 0.51 | 0.09 | 81 | 1007.7 |
| 20260506162704 | 54 | 5 | 1.0 | 7.0 | 0.00 | 0.51 | 0.09 | 81 | 1007.7 |
| 20260506162233 | 54 | 289 | 2.0 | 7.0 | 0.00 | 0.51 | 0.09 | 80 | 1007.7 |
| 20260506161209 | 54 | 295 | 1.0 | 6.0 | 0.00 | 0.51 | 0.09 | 81 | 1007.7 |
| 20260506160228 | 54 | 355 | 2.0 | 9.0 | 0.00 | 0.51 | 0.09 | 81 | 1007.6 |
| 20260506155704 | 54 | 279 | 2.0 | 9.0 | 0.00 | 0.51 | 0.09 | 82 | 1007.6 |
| 20260506154704 | 54 | 271 | 2.0 | 8.0 | 0.00 | 0.51 | 0.09 | 82 | 1007.6 |
| 20260506153704 | 55 | 323 | 2.0 | 6.0 | 0.00 | 0.52 | 0.09 | 81 | 1007.6 |
| 20260506153204 | 55 | 304 | 1.0 | 6.0 | 0.00 | 0.52 | 0.09 | 80 | 1007.5 |
| 20260506152704 | 55 | 241 | 1.0 | 6.0 | 0.00 | 0.52 | 0.09 | 80 | 1007.4 |
| 20260506151704 | 55 | 350 | 1.0 | 9.0 | 0.00 | 0.52 | 0.09 | 82 | 1007.4 |
| 20260506151204 | 55 | 273 | 2.0 | 9.0 | 0.00 | 0.53 | 0.09 | 83 | 1007.2 |
| 20260506145704 | 54 | 316 | 1.0 | 7.0 | 0.00 | 0.54 | 0.09 | 84 | 1007.0 |
| 20260506145205 | 54 | 265 | 1.0 | 8.0 | 0.00 | 0.54 | 0.09 | 84 | 1007.1 |
| 20260506144704 | 54 | 313 | 2.0 | 8.0 | 0.00 | 0.54 | 0.09 | 84 | 1007.1 |
| 20260506143704 | 54 | 286 | 3.0 | 8.0 | 0.00 | 0.54 | 0.09 | 85 | 1007.1 |
| 20260506143204 | 54 | 294 | 2.0 | 6.0 | 0.00 | 0.55 | 0.09 | 84 | 1007.1 |
| 20260506142704 | 54 | 257 | 2.0 | 7.0 | 0.00 | 0.55 | 0.09 | 84 | 1007.1 |
| 20260506142204 | 54 | 244 | 2.0 | 7.0 | 0.00 | 0.55 | 0.09 | 85 | 1007.1 |
| 20260506141704 | 54 | 286 | 1.0 | 7.0 | 0.00 | 0.55 | 0.09 | 84 | 1007.1 |
| 20260506141231 | 54 | 326 | 1.0 | 4.0 | 0.00 | 0.56 | 0.09 | 85 | 1007.2 |
| 20260506140704 | 54 | 325 | 1.0 | 5.0 | 0.00 | 0.56 | 0.09 | 85 | 1007.2 |
| 20260506135204 | 54 | 263 | 1.0 | 5.0 | 0.00 | 0.57 | 0.09 | 85 | 1007.3 |
| 20260506134705 | 54 | 314 | 1.0 | 5.0 | 0.00 | 0.57 | 0.09 | 86 | 1007.3 |
| 20260506134205 | 53 | 325 | 1.0 | 4.0 | 0.00 | 0.57 | 0.09 | 86 | 1007.3 |
| 20260506133704 | 53 | 303 | 1.0 | 5.0 | 0.00 | 0.57 | 0.09 | 86 | 1007.3 |
| 20260506132704 | 53 | 277 | 2.0 | 7.0 | 0.00 | 0.57 | 0.09 | 86 | 1007.4 |
| 20260506132204 | 54 | 277 | 2.0 | 7.0 | 0.00 | 0.57 | 0.09 | 86 | 1007.3 |
| 20260506130719 | 54 | 338 | 2.0 | 7.0 | 0.00 | 0.58 | 0.09 | 86 | 1007.2 |
| 20260506130226 | 54 | 284 | 3.0 | 7.0 | 0.00 | 0.59 | 0.09 | 85 | 1007.1 |
| 20260506125704 | 54 | 273 | 2.0 | 7.0 | 0.00 | 0.59 | 0.09 | 86 | 1007.0 |
| 20260506124704 | 54 | 22 | 1.0 | 7.0 | 0.00 | 0.60 | 0.09 | 87 | 1006.9 |
| 20260506124204 | 54 | 271 | 1.0 | 6.0 | 0.00 | 0.61 | 0.09 | 86 | 1006.8 |
| 20260506123704 | 54 | 288 | 1.0 | 6.0 | 0.00 | 0.61 | 0.09 | 86 | 1006.8 |
| 20260506123204 | 54 | 312 | 1.0 | 5.0 | 0.00 | 0.61 | 0.09 | 86 | 1006.8 |
| 20260506122704 | 54 | 342 | 1.0 | 5.0 | 0.00 | 0.62 | 0.09 | 85 | 1006.8 |
| 20260506122204 | 54 | 296 | 1.0 | 4.0 | 0.00 | 0.63 | 0.09 | 86 | 1006.7 |
| 20260506121704 | 54 | 277 | 1.0 | 6.0 | 0.00 | 0.64 | 0.09 | 86 | 1006.7 |
| 20260506121204 | 54 | 315 | 1.0 | 6.0 | 0.00 | 0.65 | 0.09 | 86 | 1006.7 |
| 20260506120704 | 54 | 271 | 2.0 | 6.0 | 0.00 | 0.65 | 0.09 | 86 | 1006.6 |
| 20260506120206 | 54 | 317 | 2.0 | 6.0 | 0.00 | 0.66 | 0.09 | 86 | 1006.6 |
| 20260506115704 | 54 | 304 | 2.0 | 5.0 | 0.00 | 0.67 | 0.09 | 86 | 1006.6 |
| 20260506115204 | 54 | 319 | 2.0 | 7.0 | 0.00 | 0.67 | 0.09 | 86 | 1006.6 |
| 20260506114704 | 54 | 301 | 2.0 | 7.0 | 0.00 | 0.67 | 0.09 | 86 | 1006.6 |
| 20260506114204 | 54 | 311 | 2.0 | 5.0 | 0.00 | 0.67 | 0.09 | 86 | 1006.6 |
| 20260506113704 | 54 | 259 | 1.0 | 4.0 | 0.00 | 0.67 | 0.09 | 87 | 1006.5 |
| 20260506113224 | 54 | 275 | 1.0 | 5.0 | 0.00 | 0.67 | 0.09 | 87 | 1006.5 |
| 20260506112704 | 54 | 274 | 2.0 | 7.0 | 0.00 | 0.67 | 0.09 | 86 | 1006.4 |
| 20260506112205 | 54 | 32 | 2.0 | 7.0 | 0.00 | 0.67 | 0.09 | 86 | 1006.3 |
| 20260506111728 | 54 | 294 | 2.0 | 7.0 | 0.00 | 0.67 | 0.09 | 87 | 1006.3 |
| 20260506111204 | 54 | 261 | 2.0 | 7.0 | 0.00 | 0.67 | 0.09 | 87 | 1006.3 |
| 20260506110705 | 54 | 294 | 1.0 | 6.0 | 0.00 | 0.67 | 0.09 | 88 | 1006.3 |
| 20260506110204 | 54 | 273 | 1.0 | 6.0 | 0.00 | 0.67 | 0.09 | 88 | 1006.3 |
| 20260506105704 | 54 | 288 | 1.0 | 4.0 | 0.00 | 0.67 | 0.09 | 89 | 1006.2 |
| 20260506105204 | 54 | 290 | 1.0 | 3.0 | 0.00 | 0.67 | 0.09 | 89 | 1006.2 |
| 20260506104704 | 54 | 325 | 0.0 | 4.0 | 0.00 | 0.67 | 0.09 | 89 | 1006.2 |
| 20260506103704 | 54 | 306 | 1.0 | 4.0 | 0.00 | 0.67 | 0.09 | 89 | 1006.0 |
| 20260506103204 | 54 | 275 | 1.0 | 4.0 | 0.00 | 0.67 | 0.09 | 89 | 1006.0 |
| 20260506102704 | 54 | 293 | 1.0 | 5.0 | 0.00 | 0.67 | 0.09 | 90 | 1006.0 |
| 20260506102204 | 53 | 312 | 1.0 | 5.0 | 0.00 | 0.67 | 0.09 | 90 | 1006.0 |
| 20260506101704 | 53 | 271 | 1.0 | 5.0 | 0.00 | 0.67 | 0.09 | 90 | 1005.9 |
| 20260506101204 | 53 | 236 | 1.0 | 5.0 | 0.00 | 0.67 | 0.09 | 91 | 1005.9 |
| 20260506100704 | 53 | 281 | 2.0 | 7.0 | 0.00 | 0.67 | 0.09 | 91 | 1005.9 |
| 20260506100223 | 53 | 225 | 2.0 | 7.0 | 0.00 | 0.67 | 0.09 | 91 | 1005.8 |
| 20260506095704 | 53 | 217 | 1.0 | 7.0 | 0.00 | 0.67 | 0.09 | 91 | 1005.8 |
| 20260506095204 | 53 | 249 | 1.0 | 6.0 | 0.00 | 0.67 | 0.09 | 92 | 1005.8 |
| 20260506094704 | 53 | 340 | 1.0 | 6.0 | 0.00 | 0.67 | 0.09 | 91 | 1005.7 |
| 20260506093704 | 53 | 311 | 2.0 | 6.0 | 0.00 | 0.67 | 0.09 | 92 | 1005.7 |
| 20260506093205 | 53 | 300 | 2.0 | 6.0 | 0.00 | 0.67 | 0.09 | 92 | 1005.5 |
| 20260506092704 | 53 | 274 | 2.0 | 5.0 | 0.00 | 0.67 | 0.09 | 92 | 1005.5 |
| 20260506092204 | 53 | 225 | 1.0 | 5.0 | 0.00 | 0.67 | 0.09 | 93 | 1005.5 |
| 20260506091704 | 53 | 304 | 1.0 | 4.0 | 0.00 | 0.67 | 0.09 | 93 | 1005.4 |
| 20260506090704 | 53 | 339 | 1.0 | 3.0 | 0.00 | 0.67 | 0.09 | 94 | 1005.4 |
| 20260506085704 | 52 | 303 | 1.0 | 7.0 | 0.00 | 0.67 | 0.09 | 95 | 1005.3 |
| 20260506085204 | 52 | 290 | 2.0 | 7.0 | 0.00 | 0.67 | 0.09 | 95 | 1005.3 |
| 20260506084704 | 52 | 289 | 3.0 | 7.0 | 0.00 | 0.67 | 0.09 | 95 | 1005.3 |